Mit dem Auto

Kostenlose Parkplätze sind vorhanden und ausgeschildert.

 

Mit dem Flugzeug

Der Sonderlandeplatz Donzdorf EDPM liegt an der Nordwestkante der Schwäbischen Alb, direkt oberhalb der Stadt Donzdorf.

Keine Landegebühr an den Flugtagen!

  • Lage: 48° 40,72 N, 09° 50,75 E; 1,5nm ESE von Donzdorf
    080°/24nm from TGO VORTAC 112.500
    208°/32nm from DKB DVORTAC 117.800
  • Elevation: 2272 ft, 693 m
  • Bahn: 09/27, 600m x 10m, Asphalt
  • Platzrunde: Süd, 3100 ft (Segelflug: Nord)
  • Funk: Donzdorf Info 118.205
  • FIS: Langen Information 128.950
  • ATIS: Stuttgart ATIS 126.125
  • Tel: C: 07162/23303
  • AIS: Frankfurt Tel. 069/78072511, 01803/337247, Fax 069/78072515
  • AIS: München Tel. 069/78072512, Fax 069/78072515
  • MET: 0900/1077227
  • Sprit: –
  • Zoll: –
  • UL-Zulassung: Ja

Weitere Informationen sind auf der Website der Fliegergruppe Donzdorf zu finden.

Stuttgart EDDS
STUTTGART/ECHTER
Metar
EDDS 191120Z 02004KT 300V070 9999 SCT050CB 24/13 Q1016 NOSIG

11:20 UTC

Wind: 20° 4kt

Visibility: 9999 m

Sky: SCT 5000 ft

Temp: 24 deg C / 75.2 deg F

Dewpoint: 13 deg C / 55.4 deg F

Pressure: 1016 hPa

TAF
TAF EDDS 190500Z 1906/2006 20004KT CAVOK BECMG 1910/1912 30008KT BECMG 1916/1918 09004KT